Weather History for Bangor, ME

Change the Weather History Date:

Wednesday, January 2, 2013

  Actual Average Record
Temperature  
Mean Temperature 3 °F 18 °F  
Max Temperature 13 °F 29 °F 50 °F (1979)
Min Temperature -7 °F 8 °F -28 °F (1999)
Degree Days  
Heating Degree Days 62 46  
Month to date heating degree days 109 92  
Since 1 July heating degree days 2903 3013  
Cooling Degree Days 0 0  
Month to date cooling degree days 0 0  
Year to date cooling degree days 0 0  
Moisture  
Dew Point -8 °F    
Average Humidity 60    
Maximum Humidity 79    
Minimum Humidity 41    
Precipitation  
Precipitation 0.00 in 0.09 in 1.17 in (1942)
Month to date precipitation T 0.19  
Year to date precipitation T 0.19  
Snow  
Snow 0.00 in 0.60 in 12.10 in (2010)
Month to date snowfall T 1.2  
Since 1 July snowfall 21.6 18.0  
Snow Depth 13.00 in    
Sea Level Pressure  
Sea Level Pressure 29.88 in    
Wind  
Wind Speed 8 mph (WNW)    
Max Wind Speed 23 mph    
Max Gust Speed 30 mph    
Visibility 10 miles    
Events      
T = Trace of Precipitation, MM = Missing Value Source: NWS Daily Summary

Daily Weather History Graph

Daily Weather History Graph

Search for Another Location

Airport:

Trip Planner

Search our weather history database for the weather conditions in past years. The results will help you decide how hot, cold, wet, or windy it might be!

Date:

Astronomy

Jan. 02, 2013 Rise Set
Actual Time 7:12 AM EST 4:06 PM EST
Civil Twilight 6:39 AM EST 4:39 PM EST
Nautical Twilight 6:02 AM EST 5:16 PM EST
Astronomical Twilight 5:27 AM EST 5:52 PM EST
Moon 9:50 PM EST (1/2) 9:39 AM EST (1/2)
Length of Visible Light 10h 00m
Length of Day
8h 53m
Waning Gibbous, 75% of the Moon is Illuminated
Jan 2
Waning Gibbous
Jan 4
Last Quarter
Jan 11
New
Jan 18
First Quarter
Jan 26
Full

Hourly Weather History & Observations

Time (EST) Temp. Windchill Dew Point Humidity Pressure Visibility Wind Dir Wind Speed Gust Speed Precip Events Conditions
12:53 AM 6.1 °F -4.3 °F -6.0 °F 58% 29.81 in 10.0 mi West 5.8 mph - N/A   Clear
1:53 AM 3.9 °F -3.4 °F -6.0 °F 64% 29.83 in 10.0 mi Variable 3.5 mph - N/A   Clear
2:53 AM 3.9 °F -9.4 °F -7.1 °F 60% 29.82 in 10.0 mi WNW 8.1 mph - N/A   Clear
3:53 AM -0.0 °F -7.9 °F -9.0 °F 66% 29.82 in 10.0 mi WNW 3.5 mph - N/A   Clear
4:53 AM -2.9 °F - -8.0 °F 79% 29.83 in 10.0 mi Calm Calm - N/A   Clear
5:53 AM -0.0 °F -7.9 °F -8.0 °F 69% 29.82 in 10.0 mi NNW 3.5 mph - N/A   Clear
6:53 AM 3.0 °F -9.3 °F -8.0 °F 60% 29.83 in 10.0 mi West 6.9 mph - N/A   Partly Cloudy
7:53 AM 3.9 °F -3.4 °F -7.1 °F 60% 29.84 in 10.0 mi West 3.5 mph - N/A   Clear
8:53 AM 6.1 °F -5.6 °F -6.0 °F 58% 29.84 in 10.0 mi Variable 6.9 mph - N/A   Clear
9:53 AM 9.0 °F -5.9 °F -5.1 °F 53% 29.85 in 10.0 mi West 11.5 mph 17.3 mph N/A   Clear
10:53 AM 10.9 °F -4.1 °F -4.0 °F 51% 29.84 in 10.0 mi NW 12.7 mph 20.7 mph N/A   Partly Cloudy
11:53 AM 10.9 °F -6.5 °F -4.0 °F 51% 29.83 in 10.0 mi NW 17.3 mph 25.3 mph N/A   Partly Cloudy
12:53 PM 12.9 °F -2.2 °F -5.1 °F 45% 29.83 in 10.0 mi WNW 13.8 mph 29.9 mph N/A   Partly Cloudy
1:53 PM 12.0 °F -3.4 °F -7.1 °F 42% 29.82 in 10.0 mi WNW 13.8 mph 25.3 mph N/A   Partly Cloudy
2:53 PM 10.9 °F -4.1 °F -8.0 °F 42% 29.85 in 10.0 mi WNW 12.7 mph 24.2 mph N/A   Clear
3:53 PM 10.0 °F -5.2 °F -9.0 °F 42% 29.87 in 10.0 mi West 12.7 mph 18.4 mph N/A   Clear
4:53 PM 8.1 °F -8.4 °F -9.0 °F 46% 29.91 in 10.0 mi WNW 13.8 mph 24.2 mph N/A   Clear
5:53 PM 6.8 °F -9.3 °F -9.4 °F 48% 29.92 in 10.0 mi WNW 12.7 mph 18.4 mph N/A   Clear
6:53 PM 3.9 °F -14.3 °F -9.9 °F 53% 29.96 in 10.0 mi WNW 15.0 mph 21.9 mph N/A   Clear
7:53 PM 1.9 °F -12.9 °F -11.0 °F 55% 29.97 in 10.0 mi WNW 9.2 mph - N/A   Clear
8:53 PM 1.0 °F -15.8 °F -11.0 °F 57% 29.98 in 10.0 mi WNW 11.5 mph 24.2 mph N/A   Clear
9:53 PM 1.0 °F -15.8 °F -11.0 °F 57% 29.98 in 10.0 mi WNW 11.5 mph - N/A   Clear
10:53 PM 1.0 °F -14.9 °F -11.0 °F 57% 29.99 in 10.0 mi WNW 10.4 mph 17.3 mph N/A   Clear
11:53 PM -0.0 °F -15.3 °F -11.0 °F 60% 30.00 in 10.0 mi WNW 9.2 mph - N/A   Clear